Voltar ao catálogo

STARLINK-11634

AtivoComunicaçõesVLEO
NORAD 63673·PAYLOAD·🇺🇸 United States

Lançado Apr 28, 2025 de Cape Canaveral Space Force Station

Loading…

Próximas Passagens (próximas 24 horas)

TLE

AtualizadoSource: CelesTrak SupGP

Época: Sep 14, 2026, 22:37 UTC

1 63673C 25085K   26257.94284722  .00052558  00000+0  40813-3 0  2575
2 63673  43.0005 217.5989 0001524 254.9780 230.1106 15.70817729    18

Acompanhe STARLINK-11634 em tempo real com AllMySat

Download on the App Store